Weather History for Lufkin, TX

Change the Weather History Date:

Sunday, November 11, 2012

  Actual Average Record
Temperature  
Mean Temperature 68 °F 60 °F  
Max Temperature 83 °F 71 °F 86 °F (1969)
Min Temperature 57 °F 48 °F 23 °F (1950)
Degree Days  
Heating Degree Days 0 7  
Month to date heating degree days 14 61  
Since 1 July heating degree days 94 127  
Cooling Degree Days 3 1  
Month to date cooling degree days 34 21  
Year to date cooling degree days 3159 2565  
Growing Degree Days 18 (Base 50)    
Moisture  
Dew Point 63 °F    
Average Humidity 76    
Maximum Humidity 84    
Minimum Humidity 67    
Precipitation  
Precipitation 0.26 in 0.19 in 1.74 in (2008)
Month to date precipitation 0.46 1.89  
Year to date precipitation 38.43 41.39  
Snow  
Snow 0.00 in - - ()
Month to date snowfall 0.0  
Since 1 July snowfall 0.0  
Since 1 September snowfall 0.0  
Snow Depth 0.00 in    
Sea Level Pressure  
Sea Level Pressure 29.96 in    
Wind  
Wind Speed 9 mph (SSE)    
Max Wind Speed 18 mph    
Max Gust Speed 27 mph    
Visibility 9 miles    
Events Rain    
T = Trace of Precipitation, MM = Missing Value Source: NWS Daily Summary

Daily Weather History Graph

Daily Weather History Graph

Search for Another Location

Airport:

Trip Planner

Search our weather history database for the weather conditions in past years. The results will help you decide how hot, cold, wet, or windy it might be!

Date:

Astronomy

Nov. 11, 2012 Rise Set
Actual Time 6:43 AM CST 5:22 PM CST
Civil Twilight 6:17 AM CST 5:48 PM CST
Nautical Twilight 5:48 AM CST 6:17 PM CST
Astronomical Twilight 5:19 AM CST 6:45 PM CST
Moon 4:06 AM CST (11/11) 3:40 PM CST (11/11)
Length of Visible Light 11h 30m
Length of Day
10h 39m
Waning Crescent, 7% of the Moon is Illuminated
Nov 11
Waning Crescent
Nov 13
New
Nov 20
First Quarter
Nov 28
Full
Dec 6
Last Quarter

Hourly Weather History & Observations

Time (CST) Temp. Dew Point Humidity Pressure Visibility Wind Dir Wind Speed Gust Speed Precip Events Conditions
12:53 AM 70.0 °F 64.0 °F 81% 29.95 in 10.0 mi SSE 10.4 mph - N/A   Overcast
1:53 AM 70.0 °F 64.0 °F 81% 29.93 in 10.0 mi SE 9.2 mph - N/A   Mostly Cloudy
2:53 AM 71.1 °F 64.0 °F 78% 29.93 in 10.0 mi SE 9.2 mph - N/A   Overcast
3:53 AM 70.0 °F 64.0 °F 81% 29.92 in 10.0 mi SE 6.9 mph - N/A   Overcast
6:50 AM 71.6 °F 64.4 °F 78% 29.94 in 10.0 mi SE 9.2 mph - 0.00 in   Overcast
7:53 AM 72.0 °F 66.0 °F 81% 29.95 in 10.0 mi SE 6.9 mph - 0.00 in   Overcast
8:53 AM 75.9 °F 66.9 °F 74% 29.96 in 10.0 mi SSE 13.8 mph 26.5 mph N/A   Overcast
10:22 AM 77.0 °F 66.2 °F 69% 29.99 in 10.0 mi SSE 9.2 mph 20.7 mph N/A   Overcast
10:53 AM 79.0 °F 66.9 °F 66% 29.96 in 10.0 mi SSE 15.0 mph 19.6 mph N/A   Overcast
1:26 PM 75.2 °F 66.2 °F 73% 29.92 in 1.8 mi SSW 15.0 mph 23.0 mph 0.16 in Rain Heavy Rain
1:33 PM 75.2 °F 66.2 °F 73% 29.91 in 3.0 mi SSW 9.2 mph 23.0 mph 0.17 in Rain Light Rain
1:53 PM 75.0 °F 68.0 °F 79% 29.89 in 10.0 mi South 6.9 mph - 0.18 in   Scattered Clouds
2:53 PM 78.1 °F 68.0 °F 71% 29.89 in 10.0 mi South 8.1 mph - N/A   Scattered Clouds
4:53 PM 75.9 °F 66.9 °F 74% 29.92 in 10.0 mi Calm Calm - N/A   Overcast
5:53 PM 75.0 °F 66.9 °F 76% 29.94 in 10.0 mi SSE 5.8 mph - N/A   Overcast
6:53 PM 73.9 °F 66.9 °F 79% 29.97 in 10.0 mi SSE 5.8 mph - N/A   Overcast
7:36 PM 64.4 °F 53.6 °F 68% 30.04 in 10.0 mi NW 19.6 mph 28.8 mph 0.00 in Rain Light Rain
7:53 PM 60.1 °F 51.1 °F 72% 30.05 in 10.0 mi North 13.8 mph 28.8 mph 0.00 in Rain Light Rain
8:53 PM 57.0 °F 52.0 °F 83% 30.09 in 9.0 mi North 6.9 mph - 0.04 in Rain Light Rain
9:53 PM 57.0 °F 52.0 °F 83% 30.13 in 10.0 mi NW 4.6 mph - 0.04 in   Overcast